EW0393 Weather Reports


time (UTC)temp
C
wind
direction
speed
KPH
gust
KPH
rain 1hr
cm
rain 24hr
cm
rain mn
cm
humidity
%
barometer
mb
20260507232703 5 0 0.0 0.0 0.00 0.00 0.00 89 1016.2
20260507231803 5 0 0.0 0.0 0.00 0.00 0.00 89 1016.3
20260507230903 5 0 0.0 0.0 0.00 0.00 0.00 89 1016.2
20260507230007 5 0 0.0 0.0 0.00 0.00 0.00 89 1016.3
20260507225618 5 0 0.0 0.0 0.00 0.00 0.00 89 1016.3
20260507224504 5 0 0.0 0.0 0.00 0.00 0.00 88 1016.5
20260507223603 5 0 0.0 0.0 0.00 0.00 0.00 88 1016.5
20260507222703 5 0 0.0 0.0 0.00 0.00 0.00 88 1016.5
20260507221803 5 0 0.0 0.0 0.00 0.00 0.00 87 1016.3
20260507220903 5 0 0.0 0.0 0.00 0.00 0.00 86 1016.3
20260507220004 5 0 0.0 0.0 0.00 0.00 0.00 86 1016.4
20260507215619 5 0 0.0 0.0 0.00 0.00 0.00 86 1016.6
20260507214503 5 0 0.0 0.0 0.00 0.00 0.00 86 1016.4
20260507213603 6 0 0.0 0.0 0.00 0.00 0.00 85 1016.5
20260507212921 6 0 0.0 0.0 0.00 0.00 0.00 85 1016.6
20260507211803 6 0 0.0 0.0 0.00 0.00 0.00 84 1016.5
20260507210903 7 0 0.0 0.0 0.00 0.00 0.00 83 1016.4
20260507210004 7 0 0.0 0.0 0.00 0.00 0.00 82 1016.5
20260507205403 7 0 0.0 0.0 0.00 0.00 0.00 82 1016.6
20260507204503 8 0 0.0 0.0 0.00 0.00 0.00 82 1016.5
20260507203603 8 0 0.0 0.0 0.00 0.00 0.00 81 1016.5
20260507202921 8 0 0.0 3.2 0.00 0.00 0.00 81 1016.4
20260507201803 8 122 0.0 3.2 0.00 0.00 0.00 81 1016.2
20260507200903 9 122 0.0 8.0 0.00 0.00 0.00 80 1016.1
20260507200003 10 127 1.6 8.0 0.00 0.00 0.00 80 1016.1
20260507195403 10 134 1.6 8.0 0.00 0.00 0.00 79 1016.1
20260507194503 10 103 0.0 6.4 0.00 0.00 0.00 78 1015.9
20260507193603 10 113 1.6 6.4 0.00 0.00 0.00 77 1015.9
20260507192703 10 133 1.6 12.9 0.00 0.00 0.00 76 1015.7
20260507191803 11 122 3.2 12.9 0.00 0.00 0.00 75 1015.8
20260507190903 11 115 3.2 17.7 0.00 0.00 0.00 74 1015.7
20260507190004 11 110 3.2 17.7 0.00 0.00 0.00 73 1015.7
20260507185621 11 115 4.8 17.7 0.00 0.00 0.00 73 1015.7
20260507184504 11 116 3.2 14.5 0.00 0.00 0.00 73 1015.7
20260507183603 11 133 3.2 14.5 0.00 0.00 0.00 73 1015.7
20260507182703 11 120 3.2 16.1 0.00 0.00 0.00 73 1015.7
20260507181803 11 122 3.2 16.1 0.00 0.00 0.00 72 1015.6
20260507181117 11 125 3.2 16.1 0.00 0.00 0.00 72 1015.6
20260507180004 11 107 3.2 12.9 0.00 0.00 0.00 71 1015.3
20260507175403 11 112 3.2 11.3 0.00 0.00 0.00 71 1015.4
20260507174503 12 120 3.2 11.3 0.00 0.00 0.00 70 1015.4
20260507173603 12 98 3.2 11.3 0.00 0.00 0.00 70 1015.4
20260507172703 12 92 1.6 11.3 0.00 0.00 0.00 70 1015.5
20260507171803 12 100 1.6 12.9 0.00 0.00 0.00 70 1015.6
20260507171118 12 118 3.2 12.9 0.00 0.00 0.00 69 1015.5
20260507170004 12 131 3.2 6.4 0.00 0.00 0.00 68 1015.7
20260507165403 12 124 3.2 14.5 0.00 0.00 0.00 68 1015.7
20260507164503 12 133 4.8 14.5 0.00 0.00 0.00 68 1015.6
20260507163603 12 119 3.2 12.9 0.00 0.00 0.00 68 1015.7
20260507162703 13 126 3.2 9.7 0.00 0.00 0.00 68 1015.8
20260507161803 13 119 3.2 16.1 0.00 0.00 0.00 68 1015.8
20260507160903 13 132 4.8 16.1 0.00 0.00 0.00 67 1015.8
20260507160003 13 122 4.8 14.5 0.00 0.00 0.00 67 1015.7
20260507155617 13 129 4.8 14.5 0.00 0.00 0.00 66 1015.7
20260507154720 13 144 4.8 14.5 0.00 0.00 0.00 67 1015.7
20260507153603 13 139 4.8 16.1 0.00 0.00 0.00 66 1015.8
20260507152703 13 137 4.8 16.1 0.00 0.00 0.00 66 1015.7
20260507151803 13 137 3.2 12.9 0.00 0.00 0.00 66 1015.8
20260507150903 13 122 4.8 12.9 0.00 0.00 0.00 66 1015.7
20260507150004 13 97 3.2 12.9 0.00 0.00 0.00 65 1015.6
20260507145403 13 90 3.2 12.9 0.00 0.00 0.00 65 1015.6
20260507144503 13 102 3.2 11.3 0.00 0.00 0.00 65 1015.6
20260507143603 13 109 3.2 12.9 0.00 0.00 0.00 65 1015.6
20260507142703 14 91 3.2 12.9 0.00 0.00 0.00 64 1015.7
20260507142018 14 76 4.8 12.9 0.00 0.00 0.00 65 1015.7
20260507140903 13 113 4.8 11.3 0.00 0.00 0.00 65 1015.8
20260507140003 14 108 3.2 11.3 0.00 0.00 0.00 63 1015.7
20260507135403 14 93 3.2 11.3 0.00 0.00 0.00 63 1015.8
20260507134503 13 124 3.2 9.7 0.00 0.00 0.00 64 1015.7
20260507133603 14 119 3.2 8.0 0.00 0.00 0.00 64 1015.8
20260507132703 13 121 1.6 9.7 0.00 0.00 0.00 64 1015.9
20260507131803 13 120 3.2 9.7 0.00 0.00 0.00 64 1016.0
20260507131120 13 118 1.6 9.7 0.00 0.00 0.00 64 1015.9
20260507130218 13 137 3.2 8.0 0.00 0.00 0.00 64 1016.0
20260507125403 13 110 3.2 8.0 0.00 0.00 0.00 62 1016.2
20260507124503 13 74 1.6 8.0 0.00 0.00 0.00 63 1016.2
20260507123819 13 66 1.6 14.5 0.00 0.00 0.00 62 1016.1
20260507122922 14 69 4.8 14.5 0.00 0.00 0.00 63 1016.1
20260507121803 13 118 3.2 12.9 0.00 0.00 0.00 63 1016.2
20260507121121 14 94 1.6 12.9 0.00 0.00 0.00 62 1016.3
20260507120004 13 71 4.8 12.9 0.00 0.00 0.00 64 1016.3
20260507115403 13 59 4.8 11.3 0.00 0.00 0.00 65 1016.4
20260507114503 13 63 4.8 9.7 0.00 0.00 0.00 64 1016.3
20260507113603 13 95 3.2 11.3 0.00 0.00 0.00 63 1016.2
20260507112917 13 71 4.8 9.7 0.00 0.00 0.00 64 1016.2
20260507111803 14 58 6.4 14.5 0.00 0.00 0.00 63 1016.3
20260507111117 14 66 6.4 16.1 0.00 0.00 0.00 62 1016.3
20260507110004 15 53 9.7 16.1 0.00 0.00 0.00 62 1016.3
20260507105403 15 62 8.0 17.7 0.00 0.00 0.00 61 1016.3
20260507104504 15 75 8.0 19.3 0.00 0.00 0.00 64 1016.5
20260507103603 15 74 6.4 19.3 0.00 0.00 0.00 60 1016.6
20260507102703 13 69 4.8 14.5 0.00 0.00 0.00 64 1016.6
20260507101803 15 67 4.8 17.7 0.00 0.00 0.00 62 1016.6
20260507100903 16 56 6.4 17.7 0.00 0.00 0.00 61 1016.5
20260507100004 16 60 6.4 17.7 0.00 0.00 0.00 60 1016.4
20260507095403 16 48 6.4 16.1 0.00 0.00 0.00 64 1016.4
20260507094503 13 40 6.4 14.5 0.00 0.00 0.00 66 1016.5
20260507093603 13 38 3.2 9.7 0.00 0.00 0.00 66 1016.5
20260507092703 13 47 3.2 9.7 0.00 0.00 0.00 70 1016.4
20260507092021 12 59 3.2 9.7 0.00 0.00 0.00 70 1016.5
20260507090903 12 75 3.2 11.3 0.00 0.00 0.00 67 1016.5
20260507090004 12 69 3.2 11.3 0.00 0.00 0.00 68 1016.3
20260507085617 12 78 1.6 6.4 0.00 0.00 0.00 71 1016.4
20260507084719 12 111 1.6 8.0 0.00 0.00 0.00 69 1016.3
20260507083603 12 69 3.2 16.1 0.00 0.00 0.00 68 1016.2
20260507082919 13 75 3.2 16.1 0.00 0.00 0.00 66 1016.1
20260507081803 13 66 3.2 16.1 0.00 0.00 0.00 73 1015.9
20260507080903 11 130 1.6 8.0 0.00 0.00 0.00 71 1016.2
20260507080004 11 103 3.2 11.3 0.00 0.00 0.00 74 1016.2
20260507075403 12 84 3.2 11.3 0.00 0.00 0.00 71 1016.1
20260507074503 11 97 3.2 11.3 0.00 0.00 0.00 72 1016.0
20260507073603 11 89 3.2 11.3 0.00 0.00 0.00 75 1015.9
20260507072703 11 63 4.8 14.5 0.00 0.00 0.00 76 1015.7
20260507071803 11 63 4.8 14.5 0.00 0.00 0.00 77 1015.6
20260507070903 10 72 4.8 12.9 0.00 0.00 0.00 78 1015.6
20260507070222 10 79 3.2 11.3 0.00 0.00 0.00 79 1015.7
20260507065403 10 69 4.8 9.7 0.00 0.00 0.00 80 1015.6
20260507064503 9 73 3.2 8.0 0.00 0.00 0.00 82 1015.7
20260507063603 9 59 4.8 8.0 0.00 0.00 0.00 83 1015.6
20260507062703 8 61 3.2 6.4 0.00 0.00 0.00 83 1015.5
20260507062017 8 61 1.6 6.4 0.00 0.00 0.00 84 1015.4
20260507060903 8 60 1.6 4.8 0.00 0.00 0.00 85 1015.6
20260507060003 8 55 0.0 4.8 0.00 0.00 0.00 86 1015.5
20260507055403 8 46 1.6 4.8 0.00 0.00 0.00 86 1015.4
20260507054721 7 46 0.0 4.8 0.00 0.00 0.00 86 1015.3
20260507053603 7 0 0.0 0.0 0.00 0.00 0.00 86 1015.1
20260507052703 7 0 0.0 0.0 0.00 0.00 0.00 86 1015.0
20260507051803 7 0 0.0 0.0 0.00 0.00 0.00 87 1015.0
20260507051120 7 0 0.0 0.0 0.00 0.00 0.00 87 1015.0
20260507050003 7 0 0.0 0.0 0.00 0.00 0.00 87 1015.0
20260507045403 7 0 0.0 0.0 0.00 0.00 0.00 87 1015.0
20260507044717 7 0 0.0 0.0 0.00 0.00 0.00 87 1014.9
20260507043819 7 0 0.0 0.0 0.00 0.00 0.00 86 1014.9
20260507042703 7 0 0.0 0.0 0.00 0.00 0.00 86 1014.9
20260507041803 7 0 0.0 0.0 0.00 0.00 0.00 86 1014.9
20260507040903 7 0 0.0 0.0 0.00 0.00 0.00 86 1014.9
20260507040004 7 0 0.0 0.0 0.00 0.00 0.00 86 1014.8
20260507035403 7 0 0.0 0.0 0.00 0.00 0.00 86 1014.8
20260507034503 7 0 0.0 0.0 0.00 0.00 0.00 86 1014.8
20260507033603 7 0 0.0 0.0 0.00 0.00 0.00 86 1014.8
20260507032917 7 0 0.0 0.0 0.00 0.00 0.00 86 1014.7
20260507031803 7 0 0.0 0.0 0.00 0.00 0.00 86 1014.7
20260507030903 7 0 0.0 0.0 0.00 0.00 0.00 86 1014.8
20260507030003 7 0 0.0 0.0 0.00 0.00 0.00 86 1014.8
20260507025403 7 0 0.0 0.0 0.00 0.00 0.00 86 1014.7
20260507024503 7 0 0.0 0.0 0.00 0.00 0.00 85 1014.8
20260507023603 7 0 0.0 0.0 0.00 0.00 0.00 85 1014.6
20260507022703 7 0 0.0 0.0 0.00 0.00 0.00 85 1014.7
20260507022020 7 0 0.0 0.0 0.00 0.00 0.00 85 1014.7
20260507020903 7 0 0.0 0.0 0.00 0.00 0.00 85 1014.7
20260507020004 7 0 0.0 0.0 0.00 0.00 0.00 85 1014.6
20260507015403 7 0 0.0 0.0 0.00 0.00 0.00 85 1014.5
20260507014719 7 0 0.0 0.0 0.00 0.00 0.00 85 1014.4
20260507013603 7 0 0.0 3.2 0.00 0.00 0.00 85 1014.3
20260507012703 7 46 1.6 3.2 0.00 0.00 0.00 84 1014.3
20260507012021 7 46 1.6 3.2 0.00 0.00 0.00 84 1014.3
20260507010903 7 46 1.6 3.2 0.00 0.00 0.00 84 1014.4
20260507010003 7 46 1.6 4.8 0.00 0.00 0.00 84 1014.5
20260507005403 7 46 1.6 4.8 0.00 0.00 0.00 84 1014.4
20260507004503 8 46 1.6 4.8 0.00 0.00 0.00 84 1014.4
20260507003603 8 46 0.0 4.8 0.00 0.00 0.00 83 1014.4
20260507002703 8 46 0.0 6.4 0.00 0.00 0.00 83 1014.5
20260507002021 8 46 1.6 6.4 0.00 0.00 0.00 83 1014.6
20260507000903 8 42 3.2 6.4 0.00 0.00 0.00 83 1014.7
20260507000004 8 39 3.2 6.4 0.00 0.00 0.00 83 1014.6
20260506235403 8 40 1.6 4.8 0.00 0.00 0.00 83 1014.7
20260506234504 8 45 3.2 8.0 0.00 0.00 0.00 83 1014.6
20260506233603 8 60 3.2 8.0 0.00 0.00 0.00 83 1014.5